Hourly Data Report for September 01, 2017

All times are specified in Local Standard Time (LST). Add 1 hour to adjust for Daylight Saving Time where and when it is observed.

RESOLUTE BAY A
NUNAVUT

74°43'01.000" N
94°58'10.000" W
67.70 m
2403498
71924
YRB

Download Data

Hourly Data (September 2017)
Hourly Data Report for September 1, 2017
Temp Definition
°C
Dew Point Temp Definition
°C
Rel Hum Definition
%
Wind Dir Definition
10's deg

Wind Spd Definition
km/h
Visibility Definition
km
Stn Press Definition
kPa
Hmdx Definition


Wind Chill Definition


Weather Definition


TIME
00:00 Legend Double Dagger -2.1 -3.3 92 34 34 24.1 99.79   -10 Cloudy
01:00 Legend Double Dagger -2.0 -3.3 91 34 34 24.1 99.82   -10 LegendNANA
02:00 Legend Double Dagger -1.7 -3.1 90 34 23 24.1 99.87   -8 LegendNANA
03:00 Legend Double Dagger -1.7 -3.1 90 33 28 24.1 99.91   -8 Cloudy
04:00 Legend Double Dagger -1.7 -3.2 90 33 34 24.1 99.90   -9 LegendNANA
05:00 Legend Double Dagger -1.9 -3.3 90 32 35 24.1 99.93   -9 LegendNANA
06:00 Legend Double Dagger -2.1 -3.5 90 32 40 24.1 99.95   -10 Cloudy
07:00 Legend Double Dagger -2.1 -3.5 90 32 32 24.1 99.99   -9 LegendNANA
08:00 Legend Double Dagger -2.0 -3.4 90 33 41 24.1 100.01   -10 LegendNANA
09:00 Legend Double Dagger -1.9 -3.9 86 33 32 24.1 100.03   -9 Snow Showers
10:00 Legend Double Dagger -1.6 -3.7 86 32 27 24.1 100.06   -8 Snow Showers
11:00 Legend Double Dagger -1.7 -3.3 89 31 32 24.1 100.05   -9 Snow Showers
12:00 Legend Double Dagger -1.7 -3.4 88 31 34 24.1 100.09   -9 Snow Showers
13:00 Legend Double Dagger -1.7 -4.1 83 32 30 24.1 100.11   -9 Snow Showers
14:00 Legend Double Dagger -1.8 -3.9 86 31 27 24.1 100.16   -8 Snow Showers
15:00 Legend Double Dagger -1.5 -3.3 87 33 27 24.1 100.22   -8 Snow Showers
16:00 Legend Double Dagger -1.3 -3.0 89 32 25 24.1 100.25   -8 Snow Showers
17:00 Legend Double Dagger -1.2 -2.8 89 32 23 24.1 100.30   -7 Snow Showers
18:00 Legend Double Dagger -1.0 -2.4 90 31 23 24.1 100.29   -7 Snow Showers
19:00 Legend Double Dagger -0.9 -2.1 91 31 20 24.1 100.33   -6 Snow Showers
20:00 Legend Double Dagger -0.8 -1.8 93 31 20 24.1 100.35   -6 LegendNANA
21:00 Legend Double Dagger -0.8 -1.7 93 30 17 24.1 100.37   -6 Cloudy
22:00 Legend Double Dagger -0.8 -2.1 90 33 20 24.1 100.39   -6 LegendNANA
23:00 Legend Double Dagger -1.1 -2.2 92 32 21 24.1 100.39   -7 LegendNANA

Notes on Data Quality.

Legend

  • E = Estimated
  • M = Missing
  • NA = Not Available
  • ‡ = Partner data that is not subject to review by the National Climate Archives
Date modified: